Weather in Capitol Hill

Northern Mariana Islands     15°12′00″N   145°45′06″E
temp.,
°C
wind,
m/s
gust,
m/s
humid.,
%
clouds,
%
prec.,
mm/h
press.,
hPa
HPBL,
m
9 may, sun
sun901:00+28e7879100 0.3 1011812
04:00+28e8878100 1.1 1010851
07:00+28e8980100 0.2 1012902
10:00+28e9107991 0.8 1012928
13:00+29e91076100 0.6 1010958
16:00+28ene9118048 0.6 10081043
19:00+28e91078100 1.5 1010986
22:00+28e9107733 1.6 10121091
10 may, mon
mon1001:00+28ene897272 0.1 10111167
04:00+28ene8973100 0.1 10101032
07:00+28ene91073100 0.0 10111142
10:00+28ene91075100 0.1 10111063
13:00+28ene91076100 0.1 10101023
16:00+28ene9977100 0.4 1009940
19:00+28e8977100 1.6 1010931
22:00+28e8979100 1.9 1012891
11 may, tue
tue1101:00+28e8979100 0.9 1011842
04:00+28e997312 1.9 1010956
07:00+28e910758 0.0 10111029
10:00+29e9107710 0.1 10121051
13:00+29e9107657 0.3 10101046
16:00+29e9107856 1.1 10091058
19:00+29e897616 0.0 10111037
22:00+28e897831 0.3 1012900
12 may, wed
wed1201:00+28e887928 0.9 1011839
04:00+28e8879100 1.6 1010843
07:00+28e887925 1.3 1012838
10:00+28e89785 1.5 1012923
13:00+29e89786 0.2 1010955
16:00+29e8976100 0.4 10101005
19:00+29e910743 0.0 1011946
22:00+29ese89755 0.0 10121029
13 may, thu
thu1301:00+28e787721 0.5 1011918
04:00+28e887611 0.8 1011907
07:00+28e8974100 0.0 10121051
10:00+28e8974100 0.0 1012978
13:00+29e997396 0.1 10111032
16:00+29e8976100 0.4 1010964
19:00+29e8977100 0.1 1011973
22:00+29e9107838 0.3 10121019